Home   Weather   Maceió   Past weeks

Flag for Brazil Past Weather in Maceió, Alagoas, Brazil — Yesterday and Last 2 Weeks

Now
77 °F

Passing clouds.


Feels Like: 78 °F
Forecast: 77 / 87 °F
Wind: 5 mph from Northeast

Location: Maceio Aeroporto

Current Time: Feb 28, 2017 at 2:42:34 am

Latest Report: Feb 28, 2017 at 1:00 am


Visibility: N/A

Pressure: 29.89 "Hg

Humidity: 89%

Dew Point: 73 °F

Location of MaceióLocation

Past Weather in Maceió — Graph

°F

Maceió Temperature Yesterday

Maximum temperature yesterday: 90 °F (at 11:00 am)
Minimum temperature yesterday: 75 °F (at 4:00 am)
Average temperature yesterday: 82 °F

High & Low Weather Summary for the Past Weeks

 TemperatureHumidityPressure
High90 °F (Feb 24, 11:00 am)94% (Feb 13, 4:00 am)30.04 "Hg (Feb 13, 4:00 am)
Low70 °F (Feb 13, 4:00 am)43% (Feb 26, 12:00 pm)29.83 "Hg (Feb 13, 3:00 pm)
Average81 °F74%29.93 "Hg
* Reported Feb 13 1:00 am — Feb 28 1:00 am, Maceió, Weather by CustomWeather, © 2017

Note: Actual official high and low records may vary slightly from our data, if they occured in-between our weather recording intervals... More about our weather records

Advertising

Maceió Weather History for the Previous 24 Hours

Scroll right to see more
 ConditionsComfort  
Time TempWeatherWind HumidityBarometerVisibility
1:00 am
Tue, Feb 28
77 °FPassing clouds.5 mph89%29.89 "HgN/A
12:00 am79 °FPassing clouds.No wind84%29.89 "HgN/A
11:00 pm
Mon, Feb 27
79 °FPassing clouds.2 mph84%29.92 "HgN/A
10:00 pm81 °FPassing clouds.6 mph79%29.89 "HgN/A
9:00 pm81 °FPassing clouds.8 mph79%29.89 "HgN/A
8:00 pm81 °FClear.6 mph79%29.89 "Hg10 mi
7:00 pm81 °FClear.8 mph84%29.86 "Hg10 mi
6:00 pm82 °FPassing clouds.15 mph74%29.86 "HgN/A
5:00 pm84 °FPassing clouds.18 mph70%29.83 "HgN/A
4:00 pm86 °FPassing clouds.17 mph62%29.83 "HgN/A
3:00 pm88 °FPassing clouds.18 mph55%29.83 "HgN/A
2:00 pm90 °FScattered clouds.16 mph55%29.83 "HgN/A
1:00 pm90 °FScattered clouds.15 mph52%29.86 "HgN/A
12:00 pm90 °FScattered clouds.13 mph52%29.89 "HgN/A
11:00 am90 °FScattered clouds.16 mph52%29.92 "HgN/A
10:00 am86 °FScattered clouds.12 mph62%29.92 "HgN/A
9:00 am84 °FPartly sunny.6 mph70%29.95 "HgN/A
8:00 am82 °FScattered clouds.9 mph74%29.92 "HgN/A
7:00 am81 °FScattered clouds.No wind79%29.92 "HgN/A
6:00 am77 °FScattered clouds.2 mph89%29.89 "HgN/A
5:00 am75 °FPassing clouds.No wind89%29.89 "HgN/A
4:00 am75 °FPassing clouds.No wind89%29.89 "HgN/A
3:00 am77 °FPassing clouds.3 mph83%29.89 "HgN/A
2:00 am77 °FClear.No wind83%29.89 "Hg10 mi
Weather by CustomWeather, © 2017

See weather overviewHow to use our weather pages